Showing default

FLOCK 4H 11, 66714

Orbit data source: Space-Track

FLOCK 4H 11, 66714 is a payload satellite owned by Planet (US) in SSO that was launched on Fri, 28 Nov 2025 UTC via an FALCON 9 launch vehicle from the Air Force Western Test Range (AFWTR). Payload-class satellites include a variety of spacecraft equipped with specific instruments for various scientific and technological missions. These include communications satellites like Starlink; space stations such as the ISS; scientific satellites like the Hubble; Earth observation satellites from companies like Planet Labs, Umbra, and HawkEye 360; GPS; miniature CubeSats for education and research; and military/defense satellites.

Loading next visibility...
Identifier
66714, 2025-276BA
Orbit
SSO
Country
Flag of USUS
Related business
Manufacturer
Planet
Mission
Partially operational Commercial Imaging
Bus & Motor
CUBESAT 3U, Unknown motor
Mass
5.7 kg wet, 5.7 kg dry
Launch date (UTC)
2025-11-28 (6 months ago)
Launch vehicle
FALCON 9
Launch site
Air Force Western Test Range (AFWTR)
Object type
Payload
Rocket body
Debris
Shape & HBR
Box + 2 Pan, 1.0 m
Radar Cross Section
0.072 m², Medium (>0.1 m² and < 1m²)

Expand to show TLE details & history
Last TLE update: 1 week ago

TLE from 1 week ago
0 FLOCK 4H 11
1 66714U 25276BA  26154.42900185  .00016919  00000-0  73788-3 0  9995
2 66714  97.4200 228.5535 0003971  78.8464 281.3218 15.22228894 28351
Epoch: 2026-06-03T10:17Z
TLE epoch observation values (Epoch: 2026-06-03T10:17:45.759Z)
Latitude
-0.0001°
Longitude
-177.7749°
Altitude
501.677 km
Speed
7.614 km/s
True Right ascension
15h 14m 12s
True Declination
0° 00' 00"
Sunlit
Object was in full shadow at epoch
Visualization orbit readout
Latitude
Unknown
Longitude
Unknown
Altitude
Unknown
Speed
Unknown
Apparent Right ascension
Unknown
Apparent Declination
Unknown
Sunlit
N/A
Visualization observer readout
Local Sidereal Time
20:52:54
Azimuth
Unknown
Elevation
Unknown
Doppler factor
Unknown
Orbital elements
Apogee altitude
498.812 km
Perigee altitude
493.353 km
Semi-major axis
6,874.22 km
Eccentricity
0.0004
Inclination
97.42°
RAAN
228.5535°
Arg. of periapsis
78.8464°
True anomaly
281.27718°
Mean anomaly
281.3218°
Eccentric anomaly
281.29949°
Mean motion
3.8081 °/min
Orbital period
94.54 mins
BSTAR
0.00073788
Loading maneuver chart data...
Computing Atmospheric mass density...
Loading historical data...
Loading historical data...
Loading historical data...
Loading historical data...
Loading historical data...
Loading historical data...
Loading historical data...

Documentation

Showing up to 5 results
|